TRANSIT 5B-1 DEB, 3166

Orbit data source: Space-Track

TRANSIT 5B-1 DEB, 3166 is space debris in LEO originally from a launch on Sat, 28 Sep 1963 UTC launched from the Air Force Western Test Range (AFWTR). Debris objects in space refer to the collection of defunct objects orbiting the Earth. Examples of debris include non-operational satellites, rocket bodies, and fragments generated from explosions, collisions, or faulty payload assembly.

Loading next visibility...
Identifier
3166, 1963-038H
Orbit
LEO
Country
Flag of USUS
Related business
Manufacturer
Unknown
Mission
Spacecraft
Bus & Motor
Unknown
Mass
Unknown
Launch date (UTC)
1963-09-28 (63 years ago)
Launch vehicle
Unknown
Launch site
Air Force Western Test Range (AFWTR)
Object type
Payload
Rocket body
Debris
Shape & HBR
Unknown shape, 0.2 m
Radar Cross Section
Medium (>0.1 m² and <1 m²)

Expand to show TLE details & history
Last TLE update: 8 hours ago

TLE from 8 hours ago
0 TRANSIT 5B-1 DEB
1 03166U 63038H   26101.13563862  .00000074  00000-0  10952-3 0  9991
2 03166  89.9686 333.2440 0040450 205.5527 309.2336 13.44964839582576
Epoch: 2026-04-11T03:15Z
TLE epoch observation values (Epoch: 2026-04-11T03:15:19.176Z)
Latitude
25.60265°
Longitude
-94.96016°
Altitude
1,074.956 km
Speed
7.326 km/s
True Right ascension
10h 12m 54s
True Declination
25° 28' 29"
Sunlit
Object was in full shadow at epoch
Visualization orbit readout
Latitude
Unknown
Longitude
Unknown
Altitude
Unknown
Speed
Unknown
Apparent Right ascension
Unknown
Apparent Declination
Unknown
Sunlit
N/A
Visualization observer readout
Local Sidereal Time
17:09:51
Azimuth
Unknown
Elevation
Unknown
Doppler factor
Unknown
Orbital elements
Apogee altitude
1,118.099 km
Perigee altitude
1,057.699 km
Semi-major axis
7,466.036 km
Eccentricity
0.00405
Inclination
89.9686°
RAAN
333.244°
Arg. of periapsis
205.5527°
True anomaly
308.87342°
Mean anomaly
309.2336°
Eccentric anomaly
309.05362°
Mean motion
3.3644 °/min
Orbital period
107 mins
BSTAR
0.00010952
Loading maneuver chart data...
Computing Atmospheric mass density...

Documentation

Showing up to 5 results
|